Flag for U.S.A. Weather past 2 weeks in Kailua-Kona, Hawaii, U.S.A.

Now
79 °F

Clear.


Feels Like: 82 °F
Forecast: 71 / 80 °F
Wind: 8 mph from Southeast

Location: Keahole Airport

Current Time: Sep 19, 2014 at 12:05:11 AM

Latest Report: Sep 18, 2014 at 10:53 PM


Visibility: 10 mi

Pressure: 29.94 "Hg

Humidity: 77%

Dew point: 71 °F

Location of Kailua-KonaLocation

Historic Weather in Kailua-Kona — Graph

°F

Kailua-Kona temperature yesterday

Maximum temperature yesterday: 87 °F (at 1:53 PM)
Minimum temperature yesterday: 76 °F (at 12:53 AM)
Average temperature yesterday: 81 °F

Past Weeks' High & Low Weather Summary

 TemperatureHumidityPressure
High88 °F (Sep 10, 12:53 PM)91% (Sep 18, 1:53 AM)30.00 "Hg (Sep 18, 1:53 AM)
Low72 °F (Sep 4, 5:53 AM)50% (Sep 5, 9:53 AM)29.85 "Hg (Sep 15, 3:53 PM)
Average81 °F68%29.93 "Hg
* Reported Sep 3 10:53 PM — Sep 18 10:53 PM, Kailua-Kona, Weather by CustomWeather, © 2014

Note: Actual official high and low records may vary slightly from our data, if they occured in-between our weather recording intervals... More about our weather records

Advertising

Kailua-Kona weather history for previous 24 hours

 ConditionsComfort  
Time TempWeatherWind HumidityBarometerVisibility
10:53 PM
Sep 18
79 °FClear.8 mph77%29.94 "Hg10 mi
9:53 PM80 °FPassing clouds.9 mph76%29.94 "Hg10 mi
9:42 PM81 °FPartly cloudy.9 mph74%29.94 "Hg10 mi
8:53 PM81 °FMostly cloudy.5 mph79%29.94 "Hg10 mi
8:16 PM81 °FPartly cloudy.7 mph79%29.93 "Hg10 mi
7:53 PM81 °FOvercast.8 mph77%29.92 "Hg10 mi
6:53 PM82 °FPassing clouds.8 mph72%29.91 "Hg10 mi
5:53 PM83 °FSunny.9 mph68%29.90 "Hg10 mi
4:53 PM84 °FSunny.9 mph67%29.88 "Hg10 mi
3:53 PM86 °FSunny.12 mph61%29.86 "Hg10 mi
2:53 PM86 °FPassing clouds.12 mph59%29.87 "Hg10 mi
1:53 PM87 °FPassing clouds.12 mph61%29.89 "Hg10 mi
12:53 PM85 °FScattered clouds.10 mph65%29.91 "Hg10 mi
11:53 AM86 °FScattered clouds.12 mph65%29.93 "Hg10 mi
10:53 AM85 °FSunny.10 mph65%29.93 "Hg10 mi
9:53 AM84 °FSunny.13 mph65%29.94 "Hg10 mi
8:53 AM83 °FPassing clouds.15 mph68%29.94 "Hg10 mi
7:53 AM81 °FLight rain. Sunny.12 mph72%29.93 "Hg10 mi
6:53 AM78 °FLight rain. Passing clouds.7 mph76%29.92 "Hg10 mi
5:53 AM76 °FLight rain. Passing clouds.5 mph85%29.91 "Hg10 mi
4:53 AM76 °FLight rain. Clear.5 mph85%29.90 "Hg10 mi
3:53 AM76 °FLight rain. Passing clouds.3 mph88%29.90 "Hg10 mi
2:53 AM77 °FLight rain. Passing clouds.No wind88%29.90 "Hg10 mi
1:53 AM76 °FLight rain. Overcast.5 mph91%29.91 "Hg10 mi
12:53 AM76 °FLight rain. Overcast.3 mph88%29.93 "Hg10 mi
Weather by CustomWeather, © 2014

See weather overviewHow to use our weather pages